Location: *
(34.0486°S, 61.7880°E)
Time: 17:52:01
(UTC+00:00)

Cosmos 1452 Rocket - Pass Details

Date: 01 April 2020
Orbit: 766 x 775 km, 74.1° (Epoch: 27 May)

Event Time Altitude Azimuth Distance (km) Brightness Sun altitude
Rises 15:10:18 0° 359° (N) 3,240 6.7 -18.0°
Reaches altitude 10° 15:12:44 10° 4° (N) 2,321 5.9 -18.5°
Maximum altitude 15:17:48 49° 78° (ENE) 998 3.6 -19.5°
Drops below altitude 10° 15:22:57 10° 151° (SSE) 2,350 5.8 -20.6°
Sets 15:25:24 0° 156° (SSE) 3,284 6.6 -21.1°
